Location: Carri�res
(48.9069°N, 2.1792°E)
Time: 12:54:49
(UTC+00:00)

Okean-O - Pass Details

Date: 17 January 2021
Orbit: 638 x 641 km, 98.2° (Epoch: 26 February)

Event Time Altitude Azimuth Distance (km) Brightness Sun altitude
Rises 16:58:38 0° 117° (ESE) 2,942 5.7 -5.6°
Reaches altitude 10° 17:01:32 10° 97° (E) 2,037 4.7 -6.1°
Maximum altitude 17:04:16 16° 59° (ENE) 1,654 4.1 -6.5°
Drops below altitude 10° 17:07:02 10° 20° (NNE) 2,046 4.8 -6.9°
Sets 17:09:56 0° 360° (N) 2,961 5.8 -7.3°
